EHI
1 0 0 1 4 11 22 34 42 51 64 74 82 86 84 73 50 33 31 32 31 30 28 26 22 20 23 20 8 2 1 0 0 0 0 0 0 0 0 0 0 0 0
1 0 0 2 5 9 13 19 25 31 40 52 61 66 67 62 49 39 34 31 27 25 24 24 19 16 19 16 7 1 1 0 0 0 0 0 0 0 0 0 0 0 0
1 0 0 1 3 4 4 5 9 14 18 24 29 35 45 48 42 37 33 27 20 16 15 15 12 10 11 10 3 0 0 0 0 0 0 0 0 0 0 0 0 0 0
0 0 0 0 0 0 0 2 6 12 15 14 13 18 28 32 29 26 25 21 14 8 6 5 4 4 4 3 1 0 0 0 0 0 0 0 0 0 0 0 0 0 0
0 0 0 0 0 0 0 1 4 9 13 12 10 12 16 16 14 15 19 16 8 3 1 0 0 0 0 0 0 0 0 0 0 0 0 0 0 0 0 0 0 0 0
0 0 0 0 0 0 0 0 1 3 5 6 6 6 7 5 5 8 13 10 4 1 0 0 0 0 0 0 0 0 0 0 0 0 0 0 0 0 0 0 0 0 0
0 0 0 0 0 0 0 0 0 0 0 1 1 1 2 3 4 6 7 4 1 0 0 0 0 0 0 0 0 0 0 0 0 0 0 0 0 0 0 0 0 0 0
0 0 0 0 0 0 0 0 0 0 0 0 0 0 1 3 4 4 3 1 0 0 0 0 0 0 0 0 0 0 0 0 0 0 0 0 0 0 0 0 0 0 0
0 0 0 0 0 0 0 0 0 0 0 0 0 0 1 2 2 2 1 0 0 0 0 0 0 0 0 0 0 0 0 0 0 0 0 0 0 0 0 0 0 0 0
0 0 0 0 0 0 0 0 0 0 0 0 0 0 0 0 0 0 0 0 0 0 0 0 0 0 0 0 0 0 0 0 0 0 0 0 0 0 0 0 0 0 0
0 0 0 0 0 0 0 0 0 0 0 0 0 0 0 0 0 0 0 0 0 0 0 0 0 0 0 0 0 0 0 0 0 0 0 0 0 0 0 0 0 0 0
0 0 0 0 0 0 0 0 0 0 0 0 0 0 0 0 0 0 0 0 0 0 0 0 0 0 0 0 0 0 0 0 0 0 0 0 0 0 0 0 0 0 0
0 0 0 0 0 0 0 0 0 0 0 0 0 0 0 0 0 0 0 0 0 0 0 0 0 0 0 0 0 0 0 0 0 0 0 0 0 0 0 0 0 0 0
0 0 0 0 0 0 0 0 0 0 0 0 0 0 0 0 0 0 0 0 0 0 0 0 0 0 0 0 0 0 0 0 0 0 0 0 0 0 0 0 0 0 0
0 0 0 0 0 0 0 0 0 0 0 0 0 0 0 0 0 0 0 0 0 0 0 0 0 0 0 0 0 0 0 0 0 0 0 0 0 0 0 0 0 0 0
0 0 0 0 0 0 0 0 0 0 0 0 0 0 0 0 0 0 0 0 0 0 0 0 0 0 0 0 0 0 0 0 0 0 0 0 0 0 0 0 0 0 0
0 0 0 0 0 0 0 0 0 0 0 0 0 0 0 0 0 0 0 0 0 0 0 0 0 0 0 0 0 0 0 0 0 0 0 0 0 0 0 0 0 0 0
0 0 0 0 0 0 0 0 0 0 0 0 0 0 0 0 0 0 0 0 0 0 0 0 0 0 0 0 0 0 0 0 0 0 0 0 0 0 0 0 0 0 0
0 0 0 0 0 0 0 0 0 0 0 0 0 0 0 0 0 0 0 0 0 0 0 0 0 0 0 0 0 0 0 0 0 0 0 0 0 0 0 0 0 0 0
0 0 0 0 0 0 0 0 0 0 0 0 0 0 0 0 0 0 0 0 0 0 0 0 0 0 0 0 0 0 0 0 0 0 0 0 0 0 0 0 0 0 0
0 0 0 0 0 0 0 0 0 0 0 0 0 0 0 0 0 0 0 0 0 0 0 0 0 0 0 0 0 0 0 0 0 0 0 0 0 0 0 0 0 0 0
0 0 0 0 0 0 0 0 0 0 0 0 0 0 0 0 0 0 0 0 0 0 0 0 0 0 0 0 0 0 0 0 0 0 0 0 0 0 0 0 0 0 0
0 0 0 1 0 0 0 0 0 0 0 0 0 0 0 0 0 0 0 0 0 0 0 0 0 0 0 0 0 0 0 0 0 0 0 0 0 0 0 0 0 0 0
0 0 0 0 0 0 0 0 0 0 0 0 0 0 0 0 0 0 0 0 0 0 0 0 0 0 0 0 0 0 0 0 0 0 0 0 0 0 0 0 0 0 0
0 0 0 0 0 0 0 0 0 0 0 0 0 0 0 0 0 0 0 0 0 0 0 0 0 0 0 0 0 0 0 0 0 0 0 0 0 0 0 0 0 0 0
0 0 0 0 0 0 0 0 0 0 0 0 0 0 0 0 0 0 0 0 0 0 0 0 0 0 0 0 0 0 0 0 0 0 0 0 0 0 0 0 0 0 0
Wind_Speed
4 3 3 4 5 6 7 7 7 6 6 6 7 7 7 6 6 7 8 8 8 9 10 11 11 10 9 8 8 7 9 9 7 9 10 10 12 13 10 10 11 12 13
3 4 4 5 7 7 7 8 8 7 7 6 5 5 6 6 6 7 9 10 10 10 10 11 9 9 8 8 7 7 8 9 7 8 9 9 9 8 9 9 9 11 10
1 0 2 4 6 7 9 8 9 8 8 8 6 5 6 6 7 9 10 12 11 11 8 7 6 6 7 6 7 7 8 7 6 5 6 7 8 7 6 7 8 9 8
3 4 5 6 7 8 8 9 9 9 8 9 9 10 9 9 9 9 9 8 7 8 8 7 5 5 5 6 7 6 5 6 6 4 5 7 6 6 7 8 7 7 8
4 6 8 9 10 11 11 10 10 11 10 9 10 11 11 11 9 10 10 7 5 5 6 7 7 5 5 5 6 5 6 4 5 4 4 5 6 8 7 9 8 6 6
4 7 9 10 11 12 12 12 12 12 11 11 11 12 14 14 13 12 9 7 5 5 7 7 7 7 5 6 7 6 6 4 4 4 4 5 5 5 6 8 8 6 6
7 9 11 11 12 13 14 14 14 14 13 13 13 14 16 16 15 12 10 8 6 6 8 8 8 7 6 6 6 6 5 4 4 5 4 3 4 4 5 6 6 6 5
9 10 10 10 11 13 13 14 15 16 15 13 12 12 14 10 7 8 6 6 5 6 8 8 8 8 8 7 5 4 4 3 4 3 3 2 2 2 2 3 4 5 3
10 10 9 10 10 11 11 12 13 15 14 12 9 6 4 3 3 4 4 4 4 5 7 7 7 7 6 5 5 3 4 3 2 1 2 3 3 3 3 3 3 5 6
8 8 8 9 8 7 7 9 11 11 10 7 3 2 3 2 2 3 4 4 5 5 7 7 7 6 5 4 4 5 3 2 2 2 3 3 3 3 3 4 3 4 6
8 8 8 8 5 3 3 6 9 11 10 9 9 9 7 5 3 2 3 3 4 5 6 7 7 6 5 4 3 3 3 3 4 3 4 4 5 5 5 5 4 4 5
7 7 8 6 5 3 2 3 6 8 9 10 10 7 5 5 3 2 1 1 3 4 5 5 5 5 5 4 4 4 5 5 5 5 5 5 5 5 6 6 5 4 4
7 7 6 5 5 4 3 1 1 3 5 7 7 5 1 3 1 1 1 1 3 3 4 5 5 5 6 5 6 7 7 7 6 6 6 5 5 6 5 6 7 6 5
7 7 6 5 5 5 4 3 1 1 3 6 9 8 5 2 1 2 3 4 4 5 6 7 7 7 7 8 8 8 8 8 8 7 6 6 6 7 7 5 6 7 6
9 7 7 6 6 6 5 4 2 2 3 7 11 10 8 6 4 4 4 5 6 7 7 8 8 9 8 8 8 9 9 9 9 8 8 9 8 7 7 7 8 9 7
9 8 7 7 7 7 6 4 2 2 2 6 11 11 10 8 7 5 6 7 7 7 7 9 9 9 9 9 9 7 9 9 9 8 8 8 7 5 5 6 7 10 10
9 8 8 8 8 7 6 5 3 2 2 5 9 11 11 9 7 6 7 7 7 7 8 9 10 10 9 8 8 6 7 9 8 8 7 8 9 8 7 4 3 5 5
8 9 8 9 9 8 7 6 5 3 2 4 7 10 12 11 7 5 6 6 6 6 6 8 10 9 9 7 6 3 7 8 7 7 7 8 9 10 10 7 8 7 7
8 8 9 10 9 9 8 7 7 5 4 4 5 9 12 14 12 9 8 6 5 5 5 7 9 9 8 5 3 2 7 6 6 6 7 6 8 11 14 7 7 7 6
8 8 9 10 10 10 9 9 9 8 7 6 6 7 9 12 13 12 11 9 7 6 5 6 7 9 8 4 1 5 4 6 5 5 7 10 9 11 14 9 8 8 8
10 10 10 11 11 10 9 9 9 9 8 8 8 7 8 9 11 12 11 11 9 7 6 6 6 7 7 6 2 5 1 4 3 3 4 7 8 9 11 9 7 7 9
11 12 11 11 11 11 10 10 10 9 8 9 9 8 8 8 10 10 10 10 10 9 8 7 7 7 7 6 5 5 5 3 3 2 4 7 5 5 6 6 8 11 10
13 13 13 13 12 12 11 11 10 9 10 10 9 9 9 7 8 9 10 10 10 10 10 8 6 6 7 7 6 6 5 4 2 4 6 4 1 5 4 1 6 7 6
14 14 15 14 14 13 13 12 10 11 11 11 10 9 9 8 8 6 7 8 10 10 10 10 8 8 8 8 8 6 6 6 5 5 6 5 3 2 2 2 0 5 7
13 14 15 15 15 14 14 13 12 11 11 11 10 10 10 8 8 7 4 5 6 6 7 7 7 8 7 6 5 0 2 1 3 1 5 5 4 3 3 4 4 5 6
11 14 16 17 16 16 15 14 12 12 11 10 10 9 9 9 8 8 7 7 4 8 8 5 3 5 9 12 9 7 6 3 2 5 4 3 2 2 3 4 4 6 7
Wind_Direction
164 181 195 212 215 211 211 213 218 204 204 207 215 222 225 227 233 232 234 245 258 268 270 267 265 260 260 257 256 260 262 261 270 278 279 273 265 260 259 259 265 263 259
200 213 246 265 271 267 264 261 253 252 243 230 217 214 212 218 229 244 246 244 247 250 252 250 251 255 253 248 248 251 274 282 279 282 290 286 275 251 247 249 250 258 263
89 318 299 297 294 289 285 284 282 273 265 259 250 236 225 224 220 232 241 243 243 247 234 221 221 237 247 247 251 257 260 274 272 262 270 288 298 322 278 259 258 260 264
48 16 354 342 328 318 306 297 288 278 267 257 253 250 246 246 242 238 238 236 230 225 207 191 190 218 246 249 249 246 256 258 266 257 248 256 275 278 288 273 256 246 253
2 348 339 332 327 324 320 312 304 299 293 281 269 264 261 260 255 242 233 217 197 198 193 176 175 191 226 241 244 232 245 251 267 270 266 265 261 253 258 277 284 279 264
327 329 326 323 321 318 313 309 306 299 292 281 269 258 256 253 244 229 215 198 188 188 192 182 177 188 207 217 225 231 232 250 270 275 267 262 260 261 257 270 283 286 273
310 317 321 321 316 313 310 306 299 292 284 270 256 247 244 242 235 223 212 201 194 193 193 190 185 187 194 210 221 223 237 238 254 267 274 275 276 280 285 285 291 286 284
297 305 312 310 307 309 311 310 303 294 286 272 260 250 248 243 230 217 207 204 200 183 177 187 184 181 185 198 202 209 210 226 243 264 305 298 304 315 331 314 311 305 297
301 300 301 299 304 313 325 329 319 305 294 283 274 259 246 219 184 171 185 184 164 152 160 165 166 165 170 178 188 189 206 220 249 303 313 313 327 319 323 310 317 319 318
300 299 297 298 309 323 342 356 354 340 327 310 307 45 52 67 116 163 156 143 147 155 156 152 146 142 145 161 194 177 160 138 73 34 10 353 339 330 324 321 313 304 302
305 304 297 297 292 299 360 22 23 19 22 39 52 44 27 11 12 39 96 121 143 152 145 136 134 136 138 141 160 137 127 101 76 55 42 35 23 9 356 352 338 319 305
292 294 296 285 264 267 298 19 38 44 50 61 69 59 15 346 354 45 79 169 171 165 142 136 133 134 128 130 135 121 95 82 73 64 57 48 49 34 14 348 345 334 318
275 289 285 262 255 266 272 287 69 81 90 101 103 108 51 328 350 74 107 98 107 108 110 115 120 119 118 117 104 89 79 75 72 70 70 60 43 25 18 354 353 344 354
267 278 272 248 251 259 270 265 236 166 158 155 148 158 175 190 84 65 76 89 105 111 110 111 112 111 108 101 93 87 83 83 81 77 73 59 40 21 358 5 11 8 14
264 266 261 252 248 249 257 264 266 244 210 179 168 172 177 174 154 132 126 128 125 118 117 120 116 113 107 94 93 97 91 89 89 83 71 61 49 29 2 7 12 13 12
263 260 250 247 245 247 251 256 277 293 229 184 172 174 174 164 153 146 139 134 124 121 125 121 112 102 89 71 65 82 93 88 86 86 89 93 68 79 64 36 25 16 16
265 252 245 238 239 241 244 247 251 263 214 171 171 170 161 149 145 150 139 130 126 127 130 123 109 99 95 90 75 56 92 88 79 73 63 63 57 29 51 94 156 76 44
262 249 240 229 226 232 234 234 245 239 198 157 159 160 152 146 143 143 129 119 116 125 132 126 114 112 113 108 102 89 100 94 89 82 76 68 54 26 358 33 43 44 42
253 245 236 227 222 225 226 226 236 239 222 175 158 160 160 158 160 160 152 139 131 128 132 122 123 125 131 142 151 223 124 116 102 82 57 48 56 16 347 11 27 25 22
227 223 221 220 215 219 221 226 233 234 225 197 175 165 162 164 165 159 158 158 155 142 133 122 129 134 139 152 207 278 163 137 138 127 115 72 40 16 358 5 19 14 359
215 206 208 208 209 208 213 228 239 235 221 193 178 171 157 154 155 156 161 167 167 154 140 129 125 122 126 146 176 308 214 142 146 128 111 78 39 21 4 356 19 349 310
221 202 200 203 202 201 209 225 232 226 209 187 182 171 165 164 154 161 166 170 166 160 158 152 144 131 124 111 111 76 55 28 111 89 73 78 46 30 15 16 350 317 313
225 206 199 198 197 199 209 219 212 204 199 190 186 178 172 165 159 166 167 168 173 175 167 157 152 147 131 117 109 99 80 32 63 75 63 52 281 230 165 81 311 326 8
224 208 200 197 196 197 203 213 205 195 200 197 187 182 173 169 166 175 177 179 180 182 172 165 165 160 158 156 158 158 160 173 178 158 152 187 228 203 124 185 335 47 32
230 211 202 200 196 194 200 206 204 197 201 198 190 187 184 179 177 182 158 192 190 184 175 164 167 171 167 123 69 245 145 85 56 232 194 189 169 147 94 73 47 26 21
237 219 211 203 195 191 196 197 195 196 203 202 198 196 194 181 185 169 151 66 79 113 119 128 153 114 114 123 113 96 88 71 336 263 184 153 125 75 52 33 41 44 28